Location: Joplin
(37.0842°N, 94.5131°W)
Time: 00:39:33
(UTC-06:00)

KKS-1 - Visible Passes

Search period start: 18 November 2019 00:00
Search period end: 28 November 2019 00:00
Orbit: 636 x 651 km, 98.3° (Epoch: 16 November)

Date Brightness Start Highest point End Pass type
(mag) Time Alt. Az. Time Alt. Az. Time Alt. Az.
19 Nov ? 05:44:02 10° E 05:45:24 11° ENE 05:46:45 10° NE visible
20 Nov ? 06:06:25 10° ESE 06:09:39 20° ENE 06:12:53 10° NNE visible
21 Nov ? 06:29:57 10° SE 06:34:00 36° ENE 06:38:02 10° N visible
23 Nov ? 05:45:29 10° E 05:46:57 12° ENE 05:48:25 10° NE visible
24 Nov ? 06:07:56 10° ESE 06:11:12 21° ENE 06:14:28 10° NNE visible
25 Nov ? 06:31:30 10° SE 06:35:33 37° ENE 06:39:36 10° N visible
27 Nov ? 05:46:55 10° E 05:48:29 12° ENE 05:50:04 10° NE visible
